Wind_Speed
98 98 93 89 88 85 75 74 63 63 64 65 60 54 54 54 52 44 36 38 41 42 38 39 41 41 40 34 30 34 36 35 41 44 42 45 47 47 46 45 45 51 45 48
93 92 97 94 98 92 89 82 77 68 66 62 64 61 57 47 46 46 43 48 39 40 40 42 45 40 37 33 37 41 40 42 49 50 53 53 53 53 49 52 51 52 49 49
101 93 88 92 91 91 93 97 85 79 71 69 67 63 58 56 56 54 51 44 42 42 39 40 39 42 41 44 44 49 46 52 51 55 55 55 59 59 58 58 59 58 56 55
103 103 100 91 90 87 89 87 85 79 79 78 70 67 62 63 61 58 52 52 50 53 53 56 53 56 55 54 52 52 55 56 57 60 56 59 60 68 64 66 68 62 61 59
101 101 99 94 93 94 91 86 90 83 83 79 83 78 67 59 59 60 63 58 54 51 51 51 54 55 58 57 57 57 60 63 62 62 64 67 67 66 72 72 68 70 73 69
106 108 104 106 99 92 94 93 86 89 84 80 81 82 66 61 59 64 63 66 60 60 60 57 58 57 62 62 62 64 68 66 65 68 70 71 72 78 74 76 78 78 76 74
105 106 100 101 107 106 100 97 87 87 91 81 78 77 75 76 70 68 68 67 70 73 72 70 72 73 69 68 73 74 68 67 71 74 78 75 80 79 80 79 81 83 81 75
106 105 101 93 89 91 98 105 99 96 92 86 85 84 76 72 76 74 70 74 72 71 72 73 76 73 74 76 77 75 75 75 78 81 79 83 86 82 84 82 84 84 80 83
103 105 109 107 105 96 95 95 96 98 97 99 96 88 83 82 82 84 76 74 71 70 73 78 76 78 78 80 77 75 81 82 85 86 90 87 88 89 90 87 91 86 87 85
107 105 108 110 111 109 105 103 105 104 100 94 90 86 83 87 84 87 86 85 78 78 76 75 83 84 87 81 77 80 85 88 91 92 95 92 92 92 94 92 94 92 91 94
111 111 108 107 107 106 107 109 105 103 100 99 96 89 87 88 86 83 83 82 81 86 84 87 90 87 86 85 87 93 97 97 95 99 99 95 95 98 97 97 99 100 98 100
119 117 117 116 116 112 109 108 111 108 99 96 98 92 90 91 91 90 85 91 95 91 89 88 90 95 92 92 97 100 101 101 101 101 101 101 101 101 101 103 106 103 103 103
123 122 116 120 124 121 117 116 113 111 109 103 101 88 94 95 92 92 94 94 90 93 96 97 100 101 100 102 105 107 103 107 108 103 104 104 107 106 108 108 108 108 105 105
120 127 126 126 116 116 116 115 114 116 114 102 106 99 99 99 99 100 98 103 104 103 105 108 105 105 106 108 111 114 108 108 108 108 106 109 112 111 111 110 111 108 108 108
109 113 116 115 120 125 120 118 116 116 111 115 107 112 108 107 112 114 111 110 111 112 113 109 111 111 111 112 113 111 109 110 111 111 114 114 113 112 112 114 111 110 111 111
112 109 111 111 113 115 118 115 113 112 110 114 110 115 113 106 110 113 113 115 115 115 116 113 115 112 111 113 113 113 114 115 115 117 117 115 116 115 116 115 115 115 115 116
116 118 116 115 113 116 121 107 112 114 113 112 112 102 112 111 113 114 115 115 116 116 115 115 114 115 114 113 114 114 115 117 115 116 115 116 118 119 116 117 116 117 119 121
114 116 117 118 117 121 109 109 108 110 111 112 110 109 111 111 114 117 113 110 109 110 111 113 113 114 114 115 116 117 115 116 118 119 118 118 117 118 118 117 119 122 124 126
113 115 116 116 115 113 106 103 105 109 106 108 109 111 112 113 113 110 108 108 111 109 110 113 114 115 116 115 114 114 115 116 117 118 118 119 120 123 122 121 124 127 129 129
103 107 114 115 112 107 95 102 104 108 106 107 108 108 109 113 113 107 110 113 113 113 113 114 113 113 112 113 114 116 117 118 120 120 119 121 123 124 126 126 128 129 131 130
104 99 107 111 117 107 97 99 102 103 95 102 107 109 108 109 109 108 110 113 113 113 113 114 115 115 115 115 115 115 119 119 119 121 122 124 126 128 129 130 130 130 128 128
106 110 104 108 110 107 101 97 98 101 103 102 101 103 104 106 107 108 108 107 107 109 110 111 112 112 112 112 114 116 120 122 122 121 123 125 127 130 132 126 122 121 121 120
110 109 111 107 102 103 101 103 103 106 109 108 107 107 106 107 108 107 106 107 109 111 113 114 116 116 116 118 120 121 123 126 127 128 128 127 125 123 124 119 117 123 126 127
114 112 113 113 108 105 106 105 107 110 110 108 108 108 109 109 110 111 112 114 116 117 120 120 121 123 124 126 127 129 130 127 127 129 128 120 116 119 121 121 124 126 130 134
121 116 113 116 113 111 110 112 114 116 115 113 113 114 115 116 117 118 119 119 119 120 123 126 127 128 130 127 123 121 121 120 118 118 118 119 121 122 125 127 130 134 136 137
116 119 119 115 113 117 117 119 123 124 123 123 122 123 121 120 121 124 125 126 128 128 127 127 128 127 125 124 123 122 121 121 122 124 125 127 130 133 135 136 135 138 137 139
Wind_Direction
222 222 225 227 228 230 229 234 234 237 234 236 237 253 248 247 254 258 246 259 273 265 266 271 279 280 281 284 287 293 305 304 314 321 322 322 326 321 323 327 328 330 322 324
218 222 225 226 229 232 234 232 233 240 239 244 246 248 247 242 247 253 264 265 265 263 264 267 273 268 271 279 284 289 297 301 309 313 314 317 318 320 320 320 318 322 320 319
219 220 223 225 229 232 233 235 238 235 239 244 242 241 248 254 258 261 261 256 261 255 267 267 271 270 271 279 284 291 291 302 302 308 309 312 315 314 315 315 319 317 318 316
218 222 224 225 224 227 229 231 233 237 239 240 242 250 250 253 259 261 259 261 264 266 268 268 268 272 277 279 282 284 291 297 301 304 306 307 311 311 312 315 315 312 316 312
219 224 227 227 229 228 230 234 237 240 240 238 243 249 249 250 255 255 256 257 264 268 268 266 268 269 276 275 281 285 292 296 298 302 304 305 306 311 309 311 313 314 311 311
223 224 225 229 229 230 234 236 235 238 240 241 244 246 244 251 251 253 253 256 258 262 267 268 271 274 275 277 283 286 290 294 295 299 303 303 302 306 308 307 308 310 310 308
223 227 226 230 233 236 237 238 240 241 243 243 244 246 242 248 253 254 253 254 257 262 267 267 274 277 280 278 284 287 288 290 293 300 301 298 302 303 305 303 304 307 307 306
221 221 224 229 232 234 236 238 238 241 244 238 240 245 247 248 251 251 251 263 266 265 268 270 270 274 277 280 283 283 285 289 291 297 300 298 300 301 302 302 302 305 305 307
222 227 232 232 232 231 230 237 240 241 241 243 244 247 251 254 256 257 257 258 258 262 266 268 268 273 279 282 282 282 285 289 291 294 297 298 298 297 299 298 301 304 301 302
219 222 225 228 231 233 232 234 238 242 242 244 246 248 255 257 253 254 257 260 259 262 263 264 268 275 281 276 277 284 285 288 290 292 296 296 297 295 296 296 299 298 300 301
220 219 220 225 229 232 234 237 240 242 245 247 246 249 251 252 254 253 253 258 259 262 263 266 270 273 277 273 278 282 288 287 287 290 293 293 292 293 293 294 295 294 297 298
222 222 222 223 227 229 231 235 241 245 247 250 249 248 247 251 252 256 256 260 264 263 263 264 267 276 274 273 280 283 285 286 288 290 291 291 291 290 291 292 293 294 296 295
223 225 222 225 230 232 234 237 238 239 240 244 245 243 244 247 250 253 256 258 256 261 265 267 271 274 273 275 279 282 283 286 288 288 288 289 288 290 291 291 293 294 293 295
225 227 229 229 229 229 230 232 234 238 239 239 239 238 241 245 246 250 251 257 265 270 268 269 268 269 273 277 280 281 281 284 285 285 286 287 288 288 289 290 291 291 291 291
223 227 230 231 232 235 236 239 241 244 246 245 249 248 249 250 255 255 258 263 263 261 263 263 268 270 276 278 278 277 279 281 282 282 284 284 284 285 286 288 289 289 290 291
224 223 226 228 231 234 235 234 236 239 242 245 245 246 252 251 252 256 258 259 260 263 264 267 268 270 271 273 273 274 276 279 279 280 281 282 283 285 286 286 288 290 290 291
226 227 228 229 230 232 234 237 240 241 241 245 246 247 249 253 256 257 256 256 260 262 262 266 267 267 269 270 272 274 276 277 278 279 280 282 281 283 285 286 287 288 289 291
229 231 232 233 231 234 236 236 239 242 244 247 249 251 252 252 254 256 259 260 261 262 263 265 265 267 269 270 271 273 275 277 277 278 279 281 283 284 285 286 287 288 290 290
232 232 232 235 237 236 235 236 239 242 242 245 249 250 252 253 253 255 258 259 259 260 262 263 265 267 269 270 272 273 276 276 277 279 280 282 283 285 286 286 286 286 287 290
233 236 236 235 239 239 238 239 241 244 245 247 248 249 249 251 253 255 256 257 259 262 264 265 267 268 270 271 273 274 275 277 278 280 282 283 283 283 284 284 285 286 287 288
231 235 239 241 239 239 241 243 245 247 248 249 250 251 253 255 256 257 260 261 263 263 264 266 267 269 272 273 275 276 277 279 281 281 281 281 282 282 283 285 286 286 287 288
235 234 236 240 241 242 240 242 246 246 247 247 249 252 254 256 258 259 259 261 263 264 265 266 268 270 272 273 273 274 275 277 278 279 280 282 283 283 285 286 287 288 287 287
235 236 238 239 238 239 238 238 240 243 245 246 248 249 251 254 255 255 256 257 259 261 263 264 266 269 271 273 274 277 278 279 280 281 282 283 285 286 287 287 286 286 287 287
234 237 237 239 240 241 242 243 241 242 243 244 246 247 249 251 253 256 259 261 263 265 266 268 270 271 274 276 278 279 280 281 281 282 284 284 283 284 285 286 286 286 287 288
235 238 241 242 242 244 246 247 247 247 247 247 250 251 252 253 254 257 260 263 267 269 270 271 274 275 276 277 278 279 279 279 280 281 281 281 283 284 285 286 286 287 287 288
238 239 241 242 244 245 247 247 248 250 251 252 254 255 257 260 261 262 264 265 266 269 271 272 274 275 275 276 276 277 278 279 279 279 279 280 281 282 283 286 289 291 292 292
Height
10701 10712 10725 10731 10737 10740 10751 10756 10760 10768 10773 10780 10786 10795 10797 10805 10809 10813 10814 10817 10820 10821 10819 10818 10818 10818 10819 10818 10819 10820 10820 10819 10818 10817 10816 10814 10813 10813 10812 10810 10807 10805 10801 10797
10690 10706 10707 10712 10723 10731 10737 10741 10750 10760 10766 10771 10776 10785 10787 10792 10799 10803 10806 10808 10811 10811 10810 10809 10810 10810 10811 10811 10812 10813 10813 10812 10811 10810 10808 10806 10805 10803 10803 10802 10800 10797 10794 10790
10680 10686 10698 10703 10709 10720 10726 10735 10742 10749 10753 10760 10764 10772 10781 10783 10790 10794 10798 10799 10801 10803 10803 10803 10803 10802 10802 10802 10803 10804 10804 10804 10803 10802 10800 10798 10796 10793 10792 10790 10788 10787 10785 10780
10659 10673 10679 10687 10699 10706 10713 10722 10728 10735 10741 10749 10753 10759 10774 10776 10780 10785 10788 10789 10789 10791 10793 10794 10794 10794 10793 10793 10794 10794 10794 10794 10793 10792 10791 10789 10787 10783 10780 10779 10775 10773 10772 10769
10660 10663 10673 10681 10690 10691 10701 10708 10716 10721 10728 10738 10743 10752 10764 10768 10771 10773 10776 10778 10778 10779 10780 10782 10783 10783 10783 10782 10782 10782 10782 10781 10781 10781 10780 10777 10774 10772 10769 10767 10763 10759 10755 10753
10639 10642 10653 10666 10674 10679 10690 10694 10703 10709 10717 10728 10734 10744 10752 10757 10758 10759 10764 10767 10767 10768 10768 10768 10770 10770 10772 10772 10772 10771 10770 10769 10769 10768 10767 10765 10762 10759 10755 10753 10749 10745 10741 10737
10631 10635 10649 10657 10660 10670 10680 10687 10692 10699 10708 10727 10724 10724 10744 10743 10746 10748 10751 10753 10754 10755 10756 10757 10758 10758 10759 10759 10759 10760 10759 10758 10757 10756 10754 10752 10750 10746 10742 10738 10735 10730 10726 10723
10614 10623 10637 10647 10653 10665 10667 10666 10679 10684 10695 10704 10702 10713 10732 10731 10730 10738 10739 10740 10740 10740 10741 10742 10745 10746 10746 10746 10746 10746 10746 10745 10744 10742 10740 10738 10735 10731 10727 10723 10719 10714 10710 10706
10605 10610 10620 10626 10633 10637 10647 10655 10663 10668 10676 10683 10694 10704 10718 10723 10723 10723 10724 10726 10727 10728 10728 10729 10728 10730 10731 10732 10732 10731 10731 10730 10729 10728 10725 10722 10719 10714 10710 10706 10702 10697 10692 10688
10581 10592 10598 10606 10612 10620 10636 10631 10640 10649 10661 10671 10686 10697 10707 10708 10704 10705 10708 10711 10713 10714 10714 10712 10712 10715 10716 10717 10717 10717 10717 10715 10712 10710 10708 10705 10701 10696 10691 10688 10684 10679 10675 10669
10563 10571 10579 10586 10601 10609 10615 10622 10630 10634 10642 10660 10672 10687 10690 10690 10690 10694 10696 10696 10695 10695 10696 10696 10697 10699 10701 10702 10700 10700 10700 10698 10696 10694 10691 10687 10683 10678 10674 10669 10665 10659 10654 10649
10544 10547 10555 10567 10572 10580 10590 10602 10606 10616 10642 10645 10651 10671 10681 10678 10678 10679 10678 10676 10676 10677 10677 10679 10681 10683 10684 10683 10682 10680 10680 10678 10675 10674 10669 10665 10660 10657 10653 10648 10643 10638 10632 10625
10518 10526 10534 10538 10553 10567 10585 10594 10600 10605 10611 10628 10633 10665 10661 10659 10656 10658 10658 10654 10655 10659 10663 10663 10664 10663 10663 10663 10662 10661 10658 10656 10654 10652 10648 10644 10640 10636 10631 10626 10621 10615 10609 10604
10492 10504 10516 10527 10555 10545 10551 10564 10573 10573 10580 10612 10610 10631 10632 10638 10637 10635 10633 10635 10644 10648 10646 10643 10642 10642 10642 10642 10642 10639 10635 10634 10632 10629 10626 10622 10618 10613 10608 10604 10599 10593 10587 10581
10473 10492 10505 10524 10524 10526 10545 10551 10557 10560 10585 10579 10613 10604 10611 10619 10623 10619 10619 10625 10622 10620 10620 10619 10623 10624 10626 10625 10622 10617 10615 10614 10610 10608 10604 10599 10595 10591 10587 10583 10577 10571 10565 10558
10458 10474 10481 10493 10501 10511 10522 10528 10539 10548 10564 10561 10586 10585 10594 10598 10592 10600 10601 10597 10596 10598 10603 10604 10605 10605 10603 10599 10596 10595 10594 10590 10588 10585 10581 10577 10573 10568 10563 10558 10553 10548 10540 10533
10440 10456 10464 10475 10482 10484 10488 10535 10527 10534 10537 10547 10555 10582 10559 10571 10574 10575 10570 10573 10581 10584 10583 10582 10581 10578 10576 10576 10574 10573 10569 10566 10564 10561 10558 10554 10548 10544 10540 10535 10529 10522 10515 10507
10431 10440 10446 10456 10457 10456 10514 10506 10513 10513 10521 10528 10540 10547 10545 10551 10547 10545 10554 10560 10560 10558 10557 10556 10555 10555 10553 10551 10549 10546 10544 10541 10539 10536 10532 10528 10524 10520 10513 10507 10500 10494 10488 10480
10416 10423 10429 10431 10440 10461 10481 10493 10491 10490 10505 10503 10517 10517 10523 10523 10526 10532 10534 10530 10526 10528 10527 10528 10529 10528 10527 10524 10522 10520 10518 10516 10513 10510 10506 10503 10498 10492 10485 10478 10473 10466 10460 10453
10401 10408 10411 10419 10425 10444 10470 10467 10469 10470 10493 10489 10490 10490 10495 10493 10502 10514 10501 10498 10501 10504 10505 10505 10504 10502 10500 10498 10496 10494 10492 10489 10485 10481 10477 10474 10470 10463 10457 10451 10443 10436 10429 10423
10381 10388 10394 10401 10408 10432 10449 10448 10450 10454 10479 10465 10464 10465 10468 10473 10478 10481 10479 10479 10481 10480 10479 10479 10478 10475 10473 10472 10470 10466 10464 10462 10458 10454 10449 10443 10439 10434 10429 10422 10411 10405 10397 10389
10364 10369 10375 10381 10393 10414 10427 10428 10431 10435 10434 10440 10443 10445 10448 10451 10456 10456 10455 10456 10455 10454 10455 10454 10452 10451 10449 10446 10443 10440 10437 10434 10429 10422 10417 10413 10408 10402 10396 10389 10381 10372 10364 10356
10341 10349 10359 10364 10380 10389 10395 10400 10402 10404 10408 10418 10423 10425 10426 10428 10431 10432 10432 10432 10433 10431 10430 10429 10428 10426 10422 10419 10416 10414 10410 10405 10399 10393 10388 10383 10377 10369 10363 10358 10349 10343 10331 10323
10320 10328 10333 10343 10361 10365 10371 10377 10380 10380 10385 10393 10398 10401 10404 10407 10408 10408 10408 10407 10406 10405 10403 10402 10400 10399 10396 10392 10390 10385 10380 10373 10368 10364 10359 10353 10346 10339 10332 10324 10318 10311 10299 10292
10299 10308 10319 10328 10340 10341 10346 10347 10347 10353 10361 10369 10374 10377 10379 10382 10384 10384 10383 10382 10380 10378 10375 10374 10372 10371 10369 10365 10361 10355 10350 10345 10341 10335 10329 10323 10317 10310 10303 10295 10286 10278 10267 10257
10284 10293 10297 10307 10308 10308 10316 10317 10321 10332 10338 10344 10350 10353 10356 10356 10355 10356 10357 10356 10356 10354 10350 10347 10345 10344 10341 10336 10332 10327 10322 10317 10312 10305 10298 10292 10286 10280 10273 10267 10260 10244 10236 10225